Casa Grande, AZ

7:15 AM MST on November 12, 2019 (GMT -0700)
Casa Grande Municipal

Weather History for KCGZ - September, 2019

Change the Weather History Date:

Friday, September 13, 2019

  Actual Average Record
Temperature  
Mean Temperature 87 °F -  
Max Temperature 104 °F 96 °F 107 °F (2000)
Min Temperature 70 °F 70 °F 59 °F (2005)
Cooling Degree Days 22    
Growing Degree Days 37 (Base 50)    
Moisture  
Dew Point 42 °F    
Average Humidity 22    
Maximum Humidity 37    
Minimum Humidity 11    
Precipitation  
Precipitation 0.00 in - - ()
Sea Level Pressure  
Sea Level Pressure 29.87 in    
Wind  
Wind Speed 3 mph ()    
Max Wind Speed 10 mph    
Max Gust Speed -    
Visibility 9.9 miles    
Events      
Averages and records for this station are not official NWS values.
T = Trace of Precipitation, MM = Missing Value Source: Averaged Metar Reports

Daily Weather History Graph

Daily Weather History Graph

Search for Another Location

Airport or City:

Astronomy

Sep. 13, 2019 Rise Set
Actual Time 6:09 AM MST 6:36 PM MST
Civil Twilight 5:44 AM MST 7:00 PM MST
Nautical Twilight 5:15 AM MST 7:30 PM MST
Astronomical Twilight 4:45 AM MST 7:59 PM MST
Moon 6:47 PM MST (9/13) 5:35 AM MST (9/13)
Length of Visible Light 13h 16m
Length of Day
12h 26m
Full, 100% of the Moon is Illuminated
Sep 13
Full
Sep 13
Full
Sep 21
Last Quarter
Sep 28
New
Oct 5
First Quarter

Hourly Weather History & Observations

Time (MST) Temp. Dew Point Humidity Pressure Visibility Wind Dir Wind Speed Gust Speed Precip Events Conditions
12:56 AM 78.1 °F 42.1 °F 28% 29.88 in 10.0 mi NE 3.5 mph - N/A   Clear
1:56 AM 75.9 °F 42.1 °F 30% 29.88 in 10.0 mi Calm Calm - N/A   Clear
2:56 AM 75.9 °F 43.0 °F 31% 29.87 in 10.0 mi Calm Calm - N/A   Clear
3:56 AM 73.0 °F 42.1 °F 33% 29.87 in 10.0 mi Calm Calm - N/A   Clear
4:56 AM 71.1 °F 42.1 °F 35% 29.88 in 10.0 mi Calm Calm - N/A   Clear
5:56 AM 70.0 °F 41.0 °F 35% 29.89 in 10.0 mi ENE 3.5 mph - N/A   Clear
6:56 AM 73.9 °F 46.0 °F 37% 29.91 in 10.0 mi Calm Calm - N/A   Clear
7:56 AM 79.0 °F 46.0 °F 31% 29.93 in 10.0 mi East 3.5 mph - N/A   Clear
8:56 AM 84.9 °F 46.0 °F 26% 29.94 in 10.0 mi SSE 3.5 mph - N/A   Clear
9:56 AM 89.1 °F 46.0 °F 22% 29.95 in 10.0 mi Calm Calm - N/A   Clear
10:56 AM 95.0 °F 41.0 °F 15% 29.93 in 10.0 mi Calm Calm - N/A   Clear
11:56 AM 100.0 °F 39.0 °F 12% 29.91 in 10.0 mi Variable 4.6 mph - N/A   Clear
12:56 PM 100.9 °F 39.9 °F 12% 29.88 in 10.0 mi NW 6.9 mph - N/A   Clear
1:56 PM 102.9 °F 37.9 °F 11% 29.84 in 10.0 mi NNW 10.4 mph - N/A   Clear
3:56 PM 104.0 °F 39.9 °F 11% 29.80 in 10.0 mi NW 9.2 mph - N/A   Clear
4:56 PM 104.0 °F 41.0 °F 12% 29.80 in 10.0 mi NNE 8.1 mph - N/A   Clear
5:56 PM 102.0 °F 42.1 °F 13% 29.80 in 10.0 mi NW 9.2 mph - N/A   Clear
6:56 PM 97.0 °F 41.0 °F 14% 29.80 in 10.0 mi NW 5.8 mph - N/A   Clear
7:56 PM 96.1 °F 42.1 °F 15% 29.81 in 10.0 mi NW 6.9 mph - N/A   Clear
8:56 PM 91.9 °F 42.1 °F 18% 29.83 in 10.0 mi WNW 5.8 mph - N/A   Clear
9:56 PM 88.0 °F 41.0 °F 19% 29.85 in 7.0 mi NNE 3.5 mph - N/A   Clear
10:56 PM 88.0 °F 41.0 °F 19% 29.86 in 10.0 mi SE 4.6 mph - N/A   Clear
11:56 PM 87.1 °F 45.0 °F 23% 29.87 in 10.0 mi SE 4.6 mph - N/A   Clear